LRS506 MRLB-MROC

Flight info

Callsign LRS506
Flight time 0h 38m
Altitude 10000
Route PUXAS1V PUXAS
Aircraft C208/L-SDFGR/C

Departure

Time 2026-04-25 06:21
Airport Daniel Oduber Quirós International Airport (MRLB)

Arrival

Time 2026-04-25 07:00
Airport Juan Santamaría International Airport (MROC)
Time Latitude Longitude Altitude Speed Heading
2026-04-25 06:09 10.59851 -85.53860 270 ft 0 kts 70°
2026-04-25 06:17 10.59856 -85.53839 270 ft 5 kts 151°
2026-04-25 06:17 10.59807 -85.53827 270 ft 9 kts 161°
2026-04-25 06:17 10.59768 -85.53876 269 ft 12 kts 216°
2026-04-25 06:18 10.59684 -85.53855 269 ft 13 kts 160°
2026-04-25 06:18 10.59649 -85.53842 269 ft 0 kts 160°
2026-04-25 06:20 10.59628 -85.53833 269 ft 18 kts 157°
2026-04-25 06:20 10.59535 -85.53899 268 ft 0 kts 248°
2026-04-25 06:21 10.59455 -85.54157 266 ft 79 kts 253°
2026-04-25 06:21 10.59208 -85.54813 379 ft 110 kts 251°
2026-04-25 06:21 10.58947 -85.55515 804 ft 102 kts 247°
2026-04-25 06:21 10.58663 -85.56205 1071 ft 110 kts 248°
2026-04-25 06:22 10.58415 -85.56955 1308 ft 113 kts 249°
2026-04-25 06:22 10.58177 -85.57716 1573 ft 115 kts 248°
2026-04-25 06:22 10.57893 -85.58496 1793 ft 125 kts 245°
2026-04-25 06:22 10.57554 -85.59355 1978 ft 135 kts 245°
2026-04-25 06:23 10.57187 -85.60245 2175 ft 138 kts 244°
2026-04-25 06:23 10.56805 -85.61144 2371 ft 139 kts 243°
2026-04-25 06:23 10.56411 -85.62041 2570 ft 139 kts 243°
2026-04-25 06:23 10.56014 -85.62927 2806 ft 136 kts 237°
2026-04-25 06:24 10.55244 -85.63381 3041 ft 133 kts 186°
2026-04-25 06:24 10.54404 -85.63040 3224 ft 138 kts 134°
2026-04-25 06:24 10.54081 -85.62126 3445 ft 140 kts 113°
2026-04-25 06:24 10.53793 -85.61188 3684 ft 141 kts 99°
2026-04-25 06:25 10.53563 -85.60231 3934 ft 139 kts 118°
2026-04-25 06:25 10.53105 -85.59363 4178 ft 139 kts 123°
2026-04-25 06:25 10.52619 -85.58514 4423 ft 139 kts 123°
2026-04-25 06:25 10.52127 -85.57667 4682 ft 139 kts 124°
2026-04-25 06:26 10.51635 -85.56820 4910 ft 139 kts 124°
2026-04-25 06:26 10.51140 -85.55970 5148 ft 140 kts 123°
2026-04-25 06:26 10.50638 -85.55110 5391 ft 141 kts 123°
2026-04-25 06:26 10.50142 -85.54257 5639 ft 142 kts 123°
2026-04-25 06:27 10.49635 -85.53390 5879 ft 143 kts 123°
2026-04-25 06:27 10.49125 -85.52515 6109 ft 145 kts 123°
2026-04-25 06:27 10.48607 -85.51626 6330 ft 147 kts 123°
2026-04-25 06:27 10.48085 -85.50730 6539 ft 148 kts 123°
2026-04-25 06:28 10.47559 -85.49828 6745 ft 149 kts 123°
2026-04-25 06:28 10.47032 -85.48923 6954 ft 149 kts 123°
2026-04-25 06:28 10.46504 -85.48020 7160 ft 149 kts 122°
2026-04-25 06:28 10.45977 -85.47116 7377 ft 148 kts 123°
2026-04-25 06:29 10.45457 -85.46223 7578 ft 149 kts 122°
2026-04-25 06:29 10.44925 -85.45312 7773 ft 150 kts 122°
2026-04-25 06:29 10.44390 -85.44395 7962 ft 151 kts 122°
2026-04-25 06:29 10.43853 -85.43473 8154 ft 152 kts 122°
2026-04-25 06:30 10.43313 -85.42549 8357 ft 152 kts 122°
2026-04-25 06:30 10.42771 -85.41619 8553 ft 153 kts 122°
2026-04-25 06:30 10.42227 -85.40685 8736 ft 154 kts 122°
2026-04-25 06:30 10.41678 -85.39746 8910 ft 155 kts 122°
2026-04-25 06:31 10.41133 -85.38813 9081 ft 156 kts 122°
2026-04-25 06:31 10.40581 -85.37866 9255 ft 156 kts 122°
2026-04-25 06:31 10.40027 -85.36916 9432 ft 156 kts 122°
2026-04-25 06:31 10.39471 -85.35966 9609 ft 157 kts 122°
2026-04-25 06:32 10.38915 -85.35013 9783 ft 157 kts 122°
2026-04-25 06:32 10.38358 -85.34058 9944 ft 157 kts 122°
2026-04-25 06:32 10.37784 -85.33076 9964 ft 166 kts 122°
2026-04-25 06:32 10.37181 -85.32047 9965 ft 172 kts 122°
2026-04-25 06:33 10.36564 -85.30992 9970 ft 175 kts 122°
2026-04-25 06:33 10.35939 -85.29921 9967 ft 177 kts 122°
2026-04-25 06:33 10.35307 -85.28838 9967 ft 178 kts 122°
2026-04-25 06:33 10.34672 -85.27751 9962 ft 179 kts 121°
2026-04-25 06:34 10.34034 -85.26661 9974 ft 180 kts 122°
2026-04-25 06:34 10.33391 -85.25561 9967 ft 180 kts 122°
2026-04-25 06:34 10.32752 -85.24466 9974 ft 180 kts 122°
2026-04-25 06:34 10.32121 -85.23385 9973 ft 180 kts 122°
2026-04-25 06:35 10.31403 -85.22345 9978 ft 180 kts 132°
2026-04-25 06:35 10.30569 -85.21396 9978 ft 180 kts 133°
2026-04-25 06:35 10.29737 -85.20445 9973 ft 180 kts 133°
2026-04-25 06:35 10.28907 -85.19491 9972 ft 180 kts 133°
2026-04-25 06:36 10.28075 -85.18533 9981 ft 180 kts 133°
2026-04-25 06:36 10.27242 -85.17576 9980 ft 180 kts 132°
2026-04-25 06:36 10.26421 -85.16634 9980 ft 180 kts 133°
2026-04-25 06:36 10.25592 -85.15681 9981 ft 180 kts 133°
2026-04-25 06:37 10.24761 -85.14726 9971 ft 180 kts 133°
2026-04-25 06:37 10.23929 -85.13770 9976 ft 180 kts 133°
2026-04-25 06:37 10.23095 -85.12812 9933 ft 183 kts 133°
2026-04-25 06:37 10.22242 -85.11833 9841 ft 186 kts 132°
2026-04-25 06:38 10.21389 -85.10854 9838 ft 184 kts 133°
2026-04-25 06:38 10.20545 -85.09884 9840 ft 183 kts 133°
2026-04-25 06:38 10.19707 -85.08921 9840 ft 182 kts 133°
2026-04-25 06:38 10.18882 -85.07974 9840 ft 181 kts 133°
2026-04-25 06:39 10.18049 -85.07018 9837 ft 181 kts 133°
2026-04-25 06:39 10.17217 -85.06063 9837 ft 180 kts 133°
2026-04-25 06:39 10.16385 -85.05108 9837 ft 181 kts 132°
2026-04-25 06:39 10.15550 -85.04148 9833 ft 181 kts 132°
2026-04-25 06:40 10.14717 -85.03192 9840 ft 181 kts 132°
2026-04-25 06:40 10.13881 -85.02233 9840 ft 181 kts 132°
2026-04-25 06:40 10.13046 -85.01275 9840 ft 181 kts 132°
2026-04-25 06:40 10.12211 -85.00318 9842 ft 181 kts 132°
2026-04-25 06:41 10.11423 -84.99317 9836 ft 182 kts 128°
2026-04-25 06:41 10.10644 -84.98306 9836 ft 182 kts 129°
2026-04-25 06:41 10.09861 -84.97295 9834 ft 182 kts 129°
2026-04-25 06:41 10.09084 -84.96284 9842 ft 182 kts 129°
2026-04-25 06:42 10.08318 -84.95285 9842 ft 182 kts 128°
2026-04-25 06:42 10.07543 -84.94274 9838 ft 181 kts 128°
2026-04-25 06:42 10.06768 -84.93263 9839 ft 181 kts 128°
2026-04-25 06:42 10.05993 -84.92254 9842 ft 181 kts 128°
2026-04-25 06:43 10.05216 -84.91241 9842 ft 181 kts 129°
2026-04-25 06:43 10.04441 -84.90231 9842 ft 181 kts 129°
2026-04-25 06:43 10.03666 -84.89221 9842 ft 181 kts 128°
2026-04-25 06:43 10.02892 -84.88213 9841 ft 181 kts 128°
2026-04-25 06:44 10.02117 -84.87204 9838 ft 181 kts 128°
2026-04-25 06:44 10.01344 -84.86197 9842 ft 181 kts 128°
2026-04-25 06:44 10.00581 -84.85202 9843 ft 181 kts 129°
2026-04-25 06:44 9.99809 -84.84196 9839 ft 181 kts 129°
2026-04-25 06:45 9.99034 -84.83188 9841 ft 181 kts 128°
2026-04-25 06:45 9.98259 -84.82179 9845 ft 181 kts 128°
2026-04-25 06:45 9.97484 -84.81170 9853 ft 181 kts 128°
2026-04-25 06:45 9.96708 -84.80159 9853 ft 181 kts 129°
2026-04-25 06:46 9.95933 -84.79150 9854 ft 181 kts 129°
2026-04-25 06:46 9.95157 -84.78140 9850 ft 181 kts 128°
2026-04-25 06:46 9.94382 -84.77131 9854 ft 181 kts 128°
2026-04-25 06:46 9.93603 -84.76119 9843 ft 182 kts 128°
2026-04-25 06:47 9.92827 -84.75109 9843 ft 181 kts 128°
2026-04-25 06:47 9.92053 -84.74101 9843 ft 181 kts 129°
2026-04-25 06:47 9.91287 -84.73104 9838 ft 181 kts 128°
2026-04-25 06:47 9.90512 -84.72096 9843 ft 181 kts 128°
2026-04-25 06:48 9.89738 -84.71088 9837 ft 182 kts 128°
2026-04-25 06:48 9.88962 -84.70080 9839 ft 181 kts 129°
2026-04-25 06:48 9.88187 -84.69071 9840 ft 181 kts 129°
2026-04-25 06:48 9.87412 -84.68063 9840 ft 181 kts 129°
2026-04-25 06:49 9.86637 -84.67055 9837 ft 181 kts 128°
2026-04-25 06:49 9.85862 -84.66048 9850 ft 181 kts 128°
2026-04-25 06:49 9.85084 -84.65036 9850 ft 182 kts 128°
2026-04-25 06:49 9.84344 -84.64000 9842 ft 182 kts 117°
2026-04-25 06:50 9.84012 -84.62769 9781 ft 184 kts 93°
2026-04-25 06:50 9.84214 -84.61483 9634 ft 187 kts 70°
2026-04-25 06:50 9.84686 -84.60242 9484 ft 190 kts 68°
2026-04-25 06:50 9.85159 -84.58994 9318 ft 192 kts 68°
2026-04-25 06:51 9.85626 -84.57742 9161 ft 185 kts 69°
2026-04-25 06:51 9.86075 -84.56538 9006 ft 180 kts 69°
2026-04-25 06:51 9.86517 -84.55359 8859 ft 177 kts 69°
2026-04-25 06:51 9.86944 -84.54219 8852 ft 168 kts 69°
2026-04-25 06:52 9.87350 -84.53138 8851 ft 165 kts 69°
2026-04-25 06:52 9.87759 -84.52047 8852 ft 165 kts 69°
2026-04-25 06:52 9.88171 -84.50949 8766 ft 171 kts 69°
2026-04-25 06:52 9.88606 -84.49782 8475 ft 182 kts 69°
2026-04-25 06:53 9.89055 -84.48576 8167 ft 183 kts 69°
2026-04-25 06:53 9.89505 -84.47368 7867 ft 182 kts 70°
2026-04-25 06:53 9.89954 -84.46165 7557 ft 183 kts 70°
2026-04-25 06:53 9.90404 -84.44960 7257 ft 182 kts 70°
2026-04-25 06:54 9.90852 -84.43758 6951 ft 182 kts 70°
2026-04-25 06:54 9.91301 -84.42557 6648 ft 182 kts 70°
2026-04-25 06:54 9.91744 -84.41373 6351 ft 180 kts 70°
2026-04-25 06:54 9.92187 -84.40185 6042 ft 179 kts 71°
2026-04-25 06:55 9.92625 -84.39007 5791 ft 175 kts 71°
2026-04-25 06:55 9.93029 -84.37871 5669 ft 167 kts 72°
2026-04-25 06:55 9.93423 -84.36784 5764 ft 162 kts 71°
2026-04-25 06:55 9.93832 -84.35716 5699 ft 165 kts 70°
2026-04-25 06:56 9.94240 -84.34611 5507 ft 167 kts 71°
2026-04-25 06:56 9.94652 -84.33509 5304 ft 168 kts 71°
2026-04-25 06:56 9.95072 -84.32394 5092 ft 170 kts 71°
2026-04-25 06:56 9.95485 -84.31290 4885 ft 169 kts 71°
2026-04-25 06:57 9.95895 -84.30189 4672 ft 163 kts 71°
2026-04-25 06:57 9.96291 -84.29139 4466 ft 157 kts 71°
2026-04-25 06:57 9.96665 -84.28137 4313 ft 146 kts 68°
2026-04-25 06:57 9.97017 -84.27202 4112 ft 137 kts 69°
2026-04-25 06:58 9.97343 -84.26323 3933 ft 129 kts 70°
2026-04-25 06:58 9.97649 -84.25518 3743 ft 119 kts 70°
2026-04-25 06:58 9.97920 -84.24785 3616 ft 101 kts 71°
2026-04-25 06:58 9.98125 -84.24224 3471 ft 98 kts 71°
2026-04-25 06:59 9.98363 -84.23579 3343 ft 96 kts 70°
2026-04-25 06:59 9.98607 -84.22946 3183 ft 96 kts 69°
2026-04-25 06:59 9.98846 -84.22327 3027 ft 92 kts 70°
2026-04-25 07:00 9.99068 -84.21741 2976 ft 84 kts 70°
2026-04-25 07:00 9.99253 -84.21268 2994 ft 55 kts 63°
2026-04-25 07:00 9.99335 -84.21158 3003 ft 18 kts 348°
2026-04-25 07:00 9.99408 -84.21092 3009 ft 13 kts 70°
2026-04-25 07:01 9.99433 -84.21027 3016 ft 6 kts 69°
2026-04-25 07:01 9.99455 -84.20970 3024 ft 15 kts 67°
2026-04-25 07:01 9.99493 -84.20868 3032 ft 13 kts 66°
2026-04-25 07:01 9.99576 -84.20886 3031 ft 14 kts 340°
2026-04-25 07:02 9.99670 -84.20921 3034 ft 14 kts 339°
2026-04-25 07:02 9.99721 -84.20870 3033 ft 6 kts 58°
2026-04-25 07:02 9.99744 -84.20871 3033 ft 5 kts 195°
2026-04-25 07:02 9.99729 -84.20844 3033 ft 6 kts 60°
2026-04-25 07:03 9.99756 -84.20840 3033 ft 2 kts 100°
2026-04-25 07:03 9.99751 -84.20836 3033 ft 0 kts 170°